Lexington Weather

Lexington, Massachusetts, USA

56°F
10/22/2020 6:51pm 
  • Lexington Conditions: Clear
  • Temperature: 56.1°F / 13.4°CColder 0.9°F than last hour.
  • Dew Point: 54.5°F 
  • Relative Humidity: 94%Increased 3.0% since last hour.
  • Wind: Calm, 10-min avg: Calm, gust: 3 mph
  • Barometer: 30.21 in Steady
  • Visibility: 10 miles
  • Rain Today: 0.00 in
  •   

Regional Weather Roundup
for Boston / Norton, MA

        
000
ASUS41 KBOX 190204
RWRBOX

REGIONAL WEATHER ROUNDUP
NATIONAL WEATHER SERVICE BOSTON/NORTON MA
1000 PM EDT SUN OCT 18 2020

NOTE:  "FAIR" INDICATES FEW OR NO CLOUDS BELOW 12,000 FEET WITH NO 
SIGNIFICANT WEATHER AND/OR OBSTRUCTIONS TO VISIBILITY.

MAZALL-190300-
EASTERN MASSACHUSETTS
  
CITY           SKY/WX    TMP DP  RH WIND       PRES   REMARKS
BOSTON         MOCLDY    51  43  74 SE8       30.46R                  
BEVERLY        PTCLDY    51  43  74 SE3       30.44S                  
LAWRENCE       CLEAR     45  41  86 CALM      30.47R                  
BEDFORD        CLEAR     41  39  93 CALM      30.44S                  
BLUE HILL        N/A     47  41  80 SE10      30.43R                  
NORWOOD        CLEAR     42  39  89 CALM      30.45R                  
MARSHFIELD     MOCLDY    52  45  76 SE3       30.43F                  
PLYMOUTH       CLEAR     43  40  89 E3        30.43F                  
TAUNTON        CLEAR     39  36  89 CALM      30.44S FOG              
NEW BEDFORD    CLEAR     42  40  92 W3        30.43F                  
$$

MAZALL-190300-
CAPE COD AND THE ISLANDS
  
CITY           SKY/WX    TMP DP  RH WIND       PRES   REMARKS
FALMOUTH       MOCLDY    45  43  93 NE5       30.43F                  
HYANNIS        PTCLDY    43  42  97 NE3       30.42S                  
CHATHAM        CLEAR     54  43  66 E3        30.44S                  
PROVINCETOWN   CLEAR     41  39  93 E5        30.45F                  
NANTUCKET      CLEAR    N/A N/A N/A E6        30.42S                  
MARTHAS VNYRD  CLEAR     40  38  93 E3        30.42F                  
$$
 
MAZALL-190300-
CENTRAL AND WESTERN MASSACHUSETTS
  
CITY           SKY/WX    TMP DP  RH WIND       PRES   REMARKS
WORCESTER      CLEAR     48  37  65 SE6       30.42F                  
FITCHBURG      CLEAR     42  39  89 CALM      30.45F                  
ORANGE         CLEAR     40  39  97 CALM      30.42F                  
SPRINGFIELD    MOCLDY    49  40  69 SE5       30.39F                  
WESTFIELD      PTCLDY    46  43  89 CALM      30.39F                  
NORTH ADAMS    CLEAR     52  40  63 SE14G23   30.36F                  
PITTSFIELD     PTCLDY    50  40  68 S10       30.37S                  
$$
 
RIZALL-190300-
RHODE ISLAND
  
CITY           SKY/WX    TMP DP  RH WIND       PRES   REMARKS
PROVIDENCE     PTCLDY    48  43  82 NE7       30.44S                  
NEWPORT        CLEAR     48  44  86 E3        30.42F                  
BLOCK ISLAND   MOCLDY    53  45  74 E7        30.42F                  
SMITHFIELD     CLEAR     42  42 100 CALM        N/A                   
WESTERLY       MOCLDY    47  42  83 CALM      30.42F                  
$$
 
CTZALL-190300-
CONNECTICUT
  
CITY           SKY/WX    TMP DP  RH WIND       PRES   REMARKS
BRADLEY INTL   MOCLDY    49  41  74 VRB3      30.39F                  
HARTFORD       CLEAR     50  42  74 SE3       30.40F                  
BRIDGEPORT     CLEAR     57  46  66 SE9       30.39S                  
DANBURY        PTCLDY    48  45  89 N3        30.41R                  
GROTON         PTCLDY    49  44  83 N5        30.41F                  
NEW HAVEN      CLEAR     58  46  64 SE7       30.39F                  
CHESTER        NOT AVBL                                               
MERIDEN        MOCLDY    48  44  86 CALM      30.40F                  
WILLIMANTIC    CLEAR     44  41  89 NE3       30.42F                  
OXFORD         PTCLDY    49  45  86 E6        30.40S                  
$$

MEZ002-015-021-024-NHZ003-005-008-011-012-014-VTZ005-008-190300-
NORTHERN NEW ENGLAND
  
CITY           SKY/WX    TMP DP  RH WIND       PRES   REMARKS
PORTLAND ME    CLEAR     45  39  79 CALM      30.47R                  
BANGOR ME      PTCLDY    39  35  86 SE5       30.46F                  
CONCORD NH     CLEAR     41  36  82 CALM      30.44F                  
MANCHESTER NH  MOCLDY    46  39  76 CALM      30.43S                  
NASHUA NH      CLEAR     43  42  97 NW3       30.46R                  
PORTSMOUTH NH  MOCLDY    49  40  70 SE5       30.43S                  
JAFFREY NH     CLEAR     45  39  79 SE5       30.42F                  
KEENE NH       CLEAR     47  40  76 VRB6      30.40F                  
BURLINGTON VT  CLOUDY    58  34  40 S13       30.28F                  
MT. WASHINGTON FOG       27  27 100 S38G46      N/A  VSB 1/16WCI   9  
$$

NYZ052-076-190300-
EASTERN NEW YORK
  
CITY           SKY/WX    TMP DP  RH WIND       PRES   REMARKS
ALBANY         MOCLDY    51  40  65 SE8       30.34F                  
NEW YORK CITY  PTCLDY    58  45  62 SE5       30.39R                  
$$
 
ANZALL-190300-
MARINE OBSERVATIONS
  
STATION/POSITION TIME  TEMP    WIND        PRES    VSBY  WAVE
                       AIR SEA DIR/SP/G                  HT/PER
                 (UTC) (F)     (DEG/KT/KT) (MB)    (MI)  (FT/S)
BOSTON BUOY      0150   55 57  130/ 14/ 16 1029.8F         2/ 4
BUZZARDS BAY     0100           90/ 11/ 12 1031.5R
NANTUCKET SOUND  0150      61  100/ 12/ 14   N/A           2/ 4
MASS BAY-STELLWA 0104   56 58  140/ 12/ 16 1031.0S  1 7/8  2/ 4
ISLE OF SHOALS   0100   54     140/ 15/ 16 1030.5F
S OF BLOCK IS    0126      63                N/A           4/ 7
$$

......................KEY.........................
  SKY/WX - SKY CONDITION/PRESENT WEATHER
  TMP    - TEMPERATURE IN FAHRENHEIT
  DWPT   - DEWPOINT IN FAHRENHEIT
  RH     - RELATIVE HUMIDITY IN PERCENT
  WIND   - DIRECTION AND SPEED IN MPH
  PRES   - MEAN SEA LEVEL PRESSURE IN INCHES OF HG
  WCI    - WIND CHILL INDEX
  VSB    - VISIBILITY IN MILES
  HX     - HEAT INDEX
  TC     - TEMPERATURE IN CELSIUS
  VRB    - VARIABLE WIND DIRECTION
  N/A    - NOT AVAILABLE
  
      

Other recent Regional Weather Roundups

Thu Oct 22, 6:04pm

Thu Oct 22, 5:04pm

Thu Oct 22, 4:05pm

Thu Oct 22, 3:04pm

Thu Oct 22, 2:05pm

Thu Oct 22, 1:04pm

Thu Oct 22, 12:04pm

Thu Oct 22, 11:04am

Thu Oct 22, 10:05am

Thu Oct 22, 9:04am

Thu Oct 22, 8:05am

Thu Oct 22, 7:04am

Thu Oct 22, 6:04am

Thu Oct 22, 5:04am

Thu Oct 22, 4:04am

Thu Oct 22, 3:04am

Thu Oct 22, 2:04am

Thu Oct 22, 1:04am

Thu Oct 22, 12:04am

Wed Oct 21, 11:05pm

Wed Oct 21, 10:04pm

Wed Oct 21, 9:04pm

Wed Oct 21, 8:04pm

Wed Oct 21, 7:04pm

Wed Oct 21, 6:04pm

Wed Oct 21, 5:05pm

Wed Oct 21, 4:04pm

Wed Oct 21, 3:04pm

Wed Oct 21, 2:05pm

Wed Oct 21, 1:04pm

Wed Oct 21, 12:04pm

Wed Oct 21, 11:04am

Wed Oct 21, 10:04am

Wed Oct 21, 9:04am

Wed Oct 21, 8:04am

Wed Oct 21, 7:04am

Wed Oct 21, 6:04am

Wed Oct 21, 5:04am

Wed Oct 21, 4:04am

Wed Oct 21, 3:04am

Wed Oct 21, 2:04am

Wed Oct 21, 1:04am

Wed Oct 21, 12:04am

Tue Oct 20, 11:05pm

Tue Oct 20, 10:04pm

Tue Oct 20, 9:04pm

Tue Oct 20, 8:05pm

Tue Oct 20, 7:04pm

Tue Oct 20, 6:04pm

Tue Oct 20, 5:05pm

Tue Oct 20, 4:04pm

Tue Oct 20, 3:05pm

Tue Oct 20, 2:07pm

Tue Oct 20, 1:04pm

Tue Oct 20, 12:04pm

Tue Oct 20, 11:04am

Tue Oct 20, 10:05am

Tue Oct 20, 9:04am

Tue Oct 20, 8:04am

Tue Oct 20, 7:04am

Tue Oct 20, 6:04am

Tue Oct 20, 5:04am

Tue Oct 20, 4:04am

Tue Oct 20, 3:04am

Tue Oct 20, 2:04am

Tue Oct 20, 1:04am

Tue Oct 20, 12:04am

Mon Oct 19, 11:04pm

Mon Oct 19, 10:04pm

Mon Oct 19, 9:04pm

Mon Oct 19, 8:04pm

Mon Oct 19, 7:04pm

Mon Oct 19, 6:04pm

Mon Oct 19, 5:04pm

Mon Oct 19, 4:04pm

Mon Oct 19, 3:04pm

Mon Oct 19, 2:04pm

Mon Oct 19, 1:05pm

Mon Oct 19, 12:04pm

Mon Oct 19, 11:04am

Mon Oct 19, 10:04am

Mon Oct 19, 9:04am

Mon Oct 19, 8:04am

Mon Oct 19, 7:04am

Mon Oct 19, 6:04am

Mon Oct 19, 5:04am

Mon Oct 19, 4:04am

Mon Oct 19, 3:04am

Mon Oct 19, 2:04am

Mon Oct 19, 1:04am

Mon Oct 19, 12:05am

Sun Oct 18, 11:04pm

Sun Oct 18, 9:04pm

Sun Oct 18, 8:04pm

Sun Oct 18, 7:05pm

Sun Oct 18, 6:04pm

Sun Oct 18, 5:05pm

Sun Oct 18, 4:05pm

Sun Oct 18, 3:04pm

Sun Oct 18, 2:05pm

Sun Oct 18, 1:04pm

Sun Oct 18, 12:04pm

Sun Oct 18, 11:04am

Sun Oct 18, 10:04am

Sun Oct 18, 9:04am

Sun Oct 18, 8:04am

Sun Oct 18, 7:04am

Sun Oct 18, 6:04am

Sun Oct 18, 5:04am

Sun Oct 18, 4:04am

Sun Oct 18, 3:04am

Sun Oct 18, 2:04am

Sun Oct 18, 1:04am

Sun Oct 18, 12:04am

Sat Oct 17, 11:05pm

Sat Oct 17, 10:04pm

Sat Oct 17, 9:04pm

Sat Oct 17, 8:04pm

Sat Oct 17, 7:04pm

Sat Oct 17, 6:04pm

Sat Oct 17, 5:05pm

Sat Oct 17, 4:04pm

Sat Oct 17, 3:04pm

Sat Oct 17, 2:05pm

Sat Oct 17, 1:05pm

Sat Oct 17, 12:04pm

Sat Oct 17, 11:05am

Sat Oct 17, 10:04am

Sat Oct 17, 9:04am

Sat Oct 17, 8:04am

Sat Oct 17, 7:04am

Sat Oct 17, 6:04am

Sat Oct 17, 5:04am

Sat Oct 17, 4:04am

Sat Oct 17, 3:04am

Sat Oct 17, 2:04am

Sat Oct 17, 1:05am

Sat Oct 17, 12:04am

Fri Oct 16, 11:05pm

Fri Oct 16, 10:04pm

Fri Oct 16, 9:05pm

Fri Oct 16, 8:04pm

Fri Oct 16, 7:05pm

Fri Oct 16, 6:04pm

Fri Oct 16, 5:04pm

Fri Oct 16, 4:05pm

Fri Oct 16, 3:04pm

Fri Oct 16, 2:04pm

Fri Oct 16, 1:04pm

Fri Oct 16, 12:04pm

Fri Oct 16, 11:05am

Fri Oct 16, 10:04am

Fri Oct 16, 9:04am

Fri Oct 16, 8:04am

Fri Oct 16, 7:04am

Fri Oct 16, 6:04am

Fri Oct 16, 5:04am

Fri Oct 16, 4:04am

Fri Oct 16, 3:04am

Fri Oct 16, 2:04am

Fri Oct 16, 1:04am

Fri Oct 16, 12:04am

Thu Oct 15, 11:04pm

Thu Oct 15, 10:04pm

Thu Oct 15, 9:05pm

Thu Oct 15, 8:04pm

Thu Oct 15, 7:05pm

Meta data:

ID: 2b3fc3a7-121a-4259-993d-2ec96aaccabd
Link: https://api.weather.gov/products/2b3fc3a7-121a-4259-993d-2ec96aaccabd